This is the latest recevied weather packets stored in our database for station/object N8BAP. If no packets are shown the sender has not sent any weather packets the latest 10 day(s).
| Time | Temp. | Humidity | Pressure | Rain* | Wind** | Luminosity | Snow |
|---|---|---|---|---|---|---|---|
| 1778111244 | 12.78° C | 61% | 1018.1 hPa | 0 mm | - | 64 W/m² | - |
| 1778110941 | 12.78° C | 59% | 1017.9 hPa | 0 mm | - | 75 W/m² | - |
| 1778110639 | 12.22° C | 59% | 1018.1 hPa | 0 mm | - | 68 W/m² | - |
| 1778110335 | 12.78° C | 62% | 1017.9 hPa | 0 mm | - | 66 W/m² | - |
| 1778110032 | 12.78° C | 59% | 1017.8 hPa | 0 mm | - | 68 W/m² | - |
| 1778109727 | 12.78° C | 58% | 1017.7 hPa | 0 mm | - | 62 W/m² | - |
| 1778109424 | 12.78° C | 60% | 1017.9 hPa | 0 mm | - | 77 W/m² | - |
| 1778109123 | 12.78° C | 57% | 1018 hPa | 0 mm | - | 65 W/m² | - |
| 1778108819 | 12.78° C | 58% | 1017.9 hPa | 0 mm | - | 55 W/m² | - |
| 1778108516 | 12.78° C | 58% | 1017.9 hPa | 0 mm | - | 92 W/m² | - |
| 1778108213 | 13.33° C | 56% | 1018.2 hPa | 0 mm | - | 88 W/m² | - |
| 1778107909 | 13.33° C | 54% | 1018.2 hPa | 0 mm | - | 127 W/m² | - |
| 1778107606 | 13.33° C | 55% | 1018.1 hPa | 0 mm | - | 121 W/m² | - |
| 1778107303 | 13.33° C | 56% | 1018.3 hPa | 0 mm | - | 134 W/m² | - |
| 1778106999 | 13.89° C | 55% | 1018.3 hPa | 0 mm | - | 150 W/m² | - |
| 1778106695 | 13.89° C | 56% | 1018.3 hPa | 0 mm | - | 126 W/m² | - |
| 1778106392 | 13.89° C | 56% | 1018.5 hPa | 0 mm | - | 215 W/m² | - |
| 1778106088 | 13.89° C | 57% | 1018.8 hPa | 0 mm | - | 152 W/m² | - |
| 1778105786 | 13.89° C | 56% | 1018.4 hPa | 0 mm | - | 139 W/m² | - |
| 1778105484 | 13.33° C | 59% | 1018.1 hPa | 0 mm | - | 196 W/m² | - |
| 1778105180 | 13.33° C | 57% | 1018.5 hPa | 0 mm | - | 120 W/m² | - |
| 1778104875 | 13.89° C | 56% | 1018.8 hPa | 0 mm | - | 104 W/m² | - |
| 1778104573 | 13.89° C | 57% | 1018.3 hPa | 0 mm | - | 161 W/m² | - |
| 1778104268 | 13.89° C | 57% | 1018.4 hPa | 0 mm | - | 144 W/m² | - |
| 1778103965 | 13.89° C | 59% | 1018 hPa | 0 mm | - | 140 W/m² | - |
* Rain latest hour (hover to see other rain measurements)
** Current wind speed in m/s (hover to see current wind gust speed)